EW5836 Weather Reports


Display with metric or nautical units.
time (UTC)temp
F
wind
direction
speed
MPH
gust
MPH
rain 1hr
in
rain 24hr
in
rain mn
in
humidity
%
barometer
mb
20260905152546 93 25 0.0 2.0 0.00 0.00 0.00 38 1017.6
20260905152041 92 42 0.0 2.0 0.00 0.00 0.00 38 1017.6
20260905151543 92 143 0.0 4.0 0.00 0.00 0.00 39 1017.6
20260905151033 92 130 3.0 4.0 0.00 0.00 0.00 39 1017.6
20260905150555 93 120 2.0 4.0 0.00 0.00 0.00 41 1017.7
20260905150037 93 154 1.0 5.0 0.00 0.00 0.00 40 1017.7
20260905145540 93 154 1.0 5.0 0.00 0.00 0.00 40 1017.7
20260905145032 92 162 1.0 4.0 0.00 0.00 0.00 41 1017.7
20260905144535 92 162 0.0 5.0 0.00 0.00 0.00 40 1017.7
20260905144041 92 162 2.0 5.0 0.00 0.00 0.00 42 1017.7
20260905143543 93 138 3.0 4.0 0.00 0.00 0.00 42 1017.7
20260905143039 92 97 1.0 4.0 0.00 0.00 0.00 41 1017.8
20260905142541 92 167 0.0 4.0 0.00 0.00 0.00 42 1017.8
20260905142045 91 170 0.0 0.0 0.00 0.00 0.00 42 1017.9
20260905141601 91 170 0.0 3.0 0.00 0.00 0.00 45 1017.9
20260905141100 91 152 0.0 8.0 0.00 0.00 0.00 46 1017.9
20260905140536 91 151 3.0 8.0 0.00 0.00 0.00 46 1017.9
20260905140047 91 173 0.0 0.0 0.00 0.00 0.00 46 1017.9
20260905135547 91 158 0.0 0.0 0.00 0.00 0.00 45 1018.0
20260905135036 91 124 0.0 0.0 0.00 0.00 0.00 46 1018.0
20260905134538 91 125 0.0 3.0 0.00 0.00 0.00 45 1018.1
20260905134045 91 163 0.0 3.0 0.00 0.00 0.00 46 1018.0
20260905133548 91 116 1.0 5.0 0.00 0.00 0.00 48 1018.1
20260905133048 91 150 0.0 3.0 0.00 0.00 0.00 48 1018.1
20260905132551 91 150 0.0 3.0 0.00 0.00 0.00 48 1018.1
20260905132035 90 150 0.0 7.0 0.00 0.00 0.00 47 1018.2
20260905131539 90 95 0.0 7.0 0.00 0.00 0.00 49 1018.2
20260905131050 90 138 0.0 8.0 0.00 0.00 0.00 51 1018.3
20260905130552 90 154 3.0 8.0 0.00 0.00 0.00 50 1018.3
20260905130040 90 144 3.0 8.0 0.00 0.00 0.00 48 1018.3
20260905125545 90 143 2.0 8.0 0.00 0.00 0.00 49 1018.4
20260905125038 90 90 1.0 10.0 0.00 0.00 0.00 48 1018.4
20260905124541 90 112 0.0 10.0 0.00 0.00 0.00 49 1018.4
20260905124046 90 88 2.0 6.0 0.00 0.00 0.00 50 1018.4
20260905123546 90 154 0.0 7.0 0.00 0.00 0.00 50 1018.4
20260905123103 90 103 0.0 7.0 0.00 0.00 0.00 50 1018.4
20260905122545 90 84 2.0 6.0 0.00 0.00 0.00 51 1018.3
20260905122054 89 81 0.0 8.0 0.00 0.00 0.00 51 1018.4
20260905121534 90 140 3.0 8.0 0.00 0.00 0.00 52 1018.4
20260905121048 89 56 0.0 3.0 0.00 0.00 0.00 53 1018.5
20260905120552 89 122 0.0 2.0 0.00 0.00 0.00 53 1018.5
20260905120108 89 118 0.0 9.0 0.00 0.00 0.00 52 1018.5
20260905115545 89 149 3.0 9.0 0.00 0.00 0.00 54 1018.5
20260905115121 89 162 3.0 9.0 0.00 0.00 0.00 53 1018.5
20260905114535 90 152 1.0 6.0 0.00 0.00 0.00 53 1018.6
20260905114045 89 83 0.0 3.0 0.00 0.00 0.00 51 1018.7
20260905113550 89 137 0.0 3.0 0.00 0.00 0.00 52 1018.6
20260905113046 89 152 0.0 0.0 0.00 0.00 0.00 50 1018.8
20260905112548 89 160 0.0 3.0 0.00 0.00 0.00 53 1018.8
20260905112039 88 190 0.0 3.0 0.00 0.00 0.00 54 1018.8
20260905111536 88 63 0.0 0.0 0.00 0.00 0.00 54 1018.8
20260905111040 87 142 0.0 0.0 0.00 0.00 0.00 54 1018.7
20260905110541 87 167 0.0 0.0 0.00 0.00 0.00 55 1018.9
20260905110037 87 263 0.0 1.0 0.00 0.00 0.00 55 1018.8
20260905105536 86 174 0.0 7.0 0.00 0.00 0.00 56 1018.8
20260905105046 86 152 0.0 9.0 0.00 0.00 0.00 55 1018.7
20260905104548 86 131 2.0 9.0 0.00 0.00 0.00 55 1018.7
20260905104037 86 154 5.0 8.0 0.00 0.00 0.00 54 1018.8
20260905103539 86 174 3.0 7.0 0.00 0.00 0.00 56 1018.8
20260905103043 86 149 2.0 7.0 0.00 0.00 0.00 56 1018.9
20260905102606 86 130 5.0 7.0 0.00 0.00 0.00 56 1019.0
20260905102051 86 146 1.0 6.0 0.00 0.00 0.00 55 1019.0
20260905101554 86 149 1.0 6.0 0.00 0.00 0.00 54 1019.0
20260905101038 86 156 0.0 7.0 0.00 0.00 0.00 57 1019.0
20260905100539 85 144 2.0 7.0 0.00 0.00 0.00 60 1018.9
20260905100043 85 140 0.0 5.0 0.00 0.00 0.00 59 1019.0
20260905095545 84 140 0.0 5.0 0.00 0.00 0.00 59 1019.0
20260905095035 85 110 0.0 0.0 0.00 0.00 0.00 59 1019.1
20260905094536 84 156 0.0 0.0 0.00 0.00 0.00 59 1019.1
20260905094043 84 158 0.0 0.0 0.00 0.00 0.00 60 1019.1
20260905093541 83 158 0.0 0.0 0.00 0.00 0.00 60 1019.1
20260905093050 82 158 0.0 0.0 0.00 0.00 0.00 61 1019.1
20260905092551 82 158 0.0 0.0 0.00 0.00 0.00 62 1019.0
20260905092042 82 158 0.0 0.0 0.00 0.00 0.00 63 1019.0
20260905091541 82 158 0.0 0.0 0.00 0.00 0.00 66 1019.0
20260905091100 81 158 0.0 0.0 0.00 0.00 0.00 68 1019.0
20260905090535 81 158 0.0 0.0 0.00 0.00 0.00 68 1018.9
20260905090044 81 158 0.0 0.0 0.00 0.00 0.00 68 1019.0
20260905085548 81 158 0.0 0.0 0.00 0.00 0.00 69 1019.0
20260905085037 81 158 0.0 6.0 0.00 0.00 0.00 68 1018.9
20260905084541 81 158 2.0 6.0 0.00 0.00 0.00 68 1018.8
20260905084101 81 162 0.0 0.0 0.00 0.00 0.00 69 1018.8
20260905083543 81 162 0.0 0.0 0.00 0.00 0.00 68 1018.9
20260905083057 80 162 0.0 0.0 0.00 0.00 0.00 68 1018.9
20260905082532 80 162 0.0 0.0 0.00 0.00 0.00 68 1018.8
20260905082040 80 162 0.0 0.0 0.00 0.00 0.00 69 1018.7
20260905081542 80 162 0.0 0.0 0.00 0.00 0.00 69 1018.6
20260905081032 79 162 0.0 0.0 0.00 0.00 0.00 70 1018.8
20260905080556 79 162 0.0 0.0 0.00 0.00 0.00 71 1018.7
20260905080045 79 162 0.0 4.0 0.00 0.00 0.00 70 1018.8
20260905075548 79 164 1.0 4.0 0.00 0.00 0.00 71 1018.7
20260905075035 79 127 0.0 0.0 0.00 0.00 0.00 71 1018.8
20260905074533 78 127 0.0 0.0 0.00 0.00 0.00 73 1018.7
20260905074040 78 155 0.0 0.0 0.00 0.00 0.00 73 1018.6
20260905073544 77 155 0.0 0.0 0.00 0.00 0.00 74 1018.5
20260905073043 77 157 0.0 0.0 0.00 0.00 0.00 74 1018.5
20260905072546 77 158 0.0 0.0 0.00 0.00 0.00 74 1018.5
20260905072034 77 312 0.0 0.0 0.00 0.00 0.00 74 1018.6
20260905071535 77 312 0.0 0.0 0.00 0.00 0.00 75 1018.7
20260905071043 76 312 0.0 0.0 0.00 0.00 0.00 75 1018.5
20260905070542 76 312 0.0 0.0 0.00 0.00 0.00 75 1018.6
20260905070050 76 312 0.0 0.0 0.00 0.00 0.00 75 1018.6
20260905065551 76 312 0.0 0.0 0.00 0.00 0.00 75 1018.6
20260905065108 76 312 0.0 0.0 0.00 0.00 0.00 75 1018.6
20260905064104 76 312 0.0 0.0 0.00 0.00 0.00 75 1018.6
20260905063547 75 312 0.0 0.0 0.00 0.00 0.00 75 1018.6
20260905063059 75 312 0.0 0.0 0.00 0.00 0.00 74 1018.5
20260905062553 74 312 0.0 0.0 0.00 0.00 0.00 76 1018.5
20260905062042 74 312 0.0 0.0 0.00 0.00 0.00 77 1018.5
20260905061601 74 312 0.0 0.0 0.00 0.00 0.00 75 1018.5
20260905061059 74 312 0.0 0.0 0.00 0.00 0.00 75 1018.5
20260905060538 74 312 0.0 0.0 0.00 0.00 0.00 75 1018.5
20260905060047 73 312 0.0 0.0 0.00 0.00 0.00 74 1018.4
20260905055546 74 312 0.0 0.0 0.00 0.00 0.00 75 1018.4
20260905055059 74 312 0.0 0.0 0.00 0.00 0.00 75 1018.4
20260905054532 73 312 0.0 0.0 0.00 0.00 0.00 76 1018.3
20260905054039 72 312 0.0 0.0 0.00 0.00 0.00 77 1018.3
20260905053539 72 312 0.0 0.0 0.00 0.00 0.00 78 1018.3
20260905053048 72 312 0.0 0.0 0.00 0.00 0.00 78 1018.2
20260905052549 71 312 0.0 0.0 0.00 0.00 0.00 78 1018.2
20260905052043 71 312 0.0 0.0 0.00 0.00 0.00 78 1018.1
20260905051545 71 312 0.0 0.0 0.00 0.00 0.00 78 1018.0
20260905051033 71 312 0.0 0.0 0.00 0.00 0.00 78 1018.0
20260905050533 71 312 0.0 0.0 0.00 0.00 0.00 78 1017.9
20260905050051 71 312 0.0 0.0 0.00 0.00 0.00 79 1017.8
20260905045553 70 312 0.0 0.0 0.00 0.00 0.00 79 1017.8
20260905045107 70 312 0.0 0.0 0.00 0.00 0.00 79 1017.8
20260905044549 71 312 0.0 0.0 0.00 0.00 0.00 79 1017.7
20260905044049 71 312 0.0 0.0 0.00 0.00 0.00 78 1017.6
20260905043551 71 312 0.0 0.0 0.00 0.00 0.00 78 1017.6
20260905043103 71 312 0.0 0.0 0.00 0.00 0.00 77 1017.6
20260905042545 71 312 0.0 0.0 0.00 0.00 0.00 77 1017.6
20260905042037 72 312 0.0 0.0 0.00 0.00 0.00 76 1017.7
20260905041540 72 312 0.0 0.0 0.00 0.00 0.00 76 1017.6
20260905041059 72 312 0.0 0.0 0.00 0.00 0.00 76 1017.5
20260905040542 72 312 0.0 0.0 0.00 0.00 0.00 76 1017.5
20260905040032 71 312 0.0 0.0 0.00 0.00 0.00 77 1017.7
20260905035536 71 312 0.0 0.0 0.00 0.00 0.00 77 1017.6
20260905035044 72 312 0.0 0.0 0.00 0.00 0.00 76 1017.5
20260905034548 72 312 0.0 0.0 0.00 0.00 0.00 75 1017.5
20260905034056 73 312 0.0 0.0 0.00 0.00 0.00 75 1017.7
20260905033531 73 312 0.0 0.0 0.00 0.00 0.00 75 1017.6
20260905033041 73 312 0.0 0.0 0.00 0.00 0.00 75 1017.7
20260905032543 73 312 0.0 0.0 0.00 0.00 0.00 75 1017.7
20260905032053 73 312 0.0 0.0 0.00 0.00 0.00 75 1017.7
20260905031536 72 312 0.0 0.0 0.00 0.00 0.00 75 1017.8
20260905031043 72 312 0.0 0.0 0.00 0.00 0.00 75 1017.7
20260905030545 73 312 0.0 0.0 0.00 0.00 0.00 75 1017.7
20260905030034 73 312 0.0 0.0 0.00 0.00 0.00 75 1017.8
20260905025538 73 312 0.0 0.0 0.00 0.00 0.00 74 1017.7
20260905025041 73 312 0.0 0.0 0.00 0.00 0.00 74 1017.7
20260905024545 73 312 0.0 0.0 0.00 0.00 0.00 75 1017.9
20260905024044 73 312 0.0 0.0 0.00 0.00 0.00 75 1018.0
20260905023546 73 314 0.0 0.0 0.00 0.00 0.00 75 1018.0
20260905023034 74 314 0.0 0.0 0.00 0.00 0.00 74 1017.9
20260905022539 74 314 0.0 0.0 0.00 0.00 0.00 74 1017.9
20260905022034 74 314 0.0 0.0 0.00 0.00 0.00 73 1018.0
20260905021533 74 314 0.0 0.0 0.00 0.00 0.00 74 1018.1
20260905021040 74 314 0.0 0.0 0.00 0.00 0.00 74 1018.0
20260905020542 74 314 0.0 0.0 0.00 0.00 0.00 74 1017.9
20260905020055 74 314 0.0 0.0 0.00 0.00 0.00 74 1017.9
20260905015534 74 314 0.0 0.0 0.00 0.00 0.00 74 1017.9
20260905015040 74 314 0.0 0.0 0.00 0.00 0.00 74 1017.9
20260905014542 74 314 0.0 0.0 0.00 0.00 0.00 74 1018.0
20260905014033 74 314 0.0 0.0 0.00 0.00 0.00 75 1018.0
20260905013538 74 314 0.0 0.0 0.00 0.00 0.00 74 1018.1
20260905013045 74 314 0.0 0.0 0.00 0.00 0.00 74 1018.0
20260905012550 74 314 0.0 0.0 0.00 0.00 0.00 74 1017.9
20260905012041 74 314 0.0 0.0 0.00 0.00 0.00 74 1017.9
20260905011544 74 314 0.0 0.0 0.00 0.00 0.00 74 1017.9
20260905011102 74 314 0.0 0.0 0.00 0.00 0.00 73 1018.0
20260905010542 74 314 0.0 0.0 0.00 0.00 0.00 73 1018.0
20260905010033 74 314 0.0 0.0 0.00 0.00 0.00 73 1018.0
20260905005559 74 314 0.0 0.0 0.00 0.00 0.00 73 1018.0
20260905005044 74 314 0.0 0.0 0.00 0.00 0.00 73 1018.0
20260905004549 75 314 0.0 0.0 0.00 0.00 0.00 72 1018.0
20260905004038 75 314 0.0 0.0 0.00 0.00 0.00 72 1018.0
20260905003541 75 314 0.0 0.0 0.00 0.00 0.00 72 1018.0
20260905003052 75 314 0.0 0.0 0.00 0.00 0.00 71 1018.1
20260905002533 75 314 0.0 0.0 0.00 0.00 0.00 72 1018.2
20260905002042 75 314 0.0 0.0 0.00 0.00 0.00 72 1018.2
20260905001544 75 314 0.0 0.0 0.00 0.00 0.00 71 1018.2
20260905001033 76 314 0.0 0.0 0.00 0.00 0.00 70 1018.2
20260905000537 76 314 0.0 0.0 0.00 0.00 0.00 69 1018.2
20260905000040 76 314 0.0 0.0 0.00 0.00 0.00 69 1018.3
20260904235542 76 314 0.0 0.0 0.00 0.00 0.00 69 1018.3
20260904235057 76 314 0.0 0.0 0.00 0.00 0.00 69 1018.3
20260904234534 76 314 0.0 0.0 0.00 0.00 0.00 70 1018.3
20260904234108 76 314 0.0 0.0 0.00 0.00 0.00 70 1018.4
20260904233550 77 314 0.0 0.0 0.00 0.00 0.00 69 1018.3
20260904233041 77 314 0.0 0.0 0.00 0.00 0.00 69 1018.3
20260904232544 77 314 0.0 0.0 0.00 0.00 0.00 69 1018.4
20260904232036 77 314 0.0 0.0 0.00 0.00 0.00 69 1018.4
20260904231539 77 314 0.0 0.0 0.00 0.00 0.00 69 1018.4
20260904231047 77 314 0.0 0.0 0.00 0.00 0.00 68 1018.4
20260904230551 77 314 0.0 0.0 0.00 0.00 0.00 68 1018.4
20260904230041 77 314 0.0 0.0 0.00 0.00 0.00 68 1018.5
20260904225545 77 314 0.0 0.0 0.00 0.00 0.00 68 1018.4
20260904225040 77 314 0.0 0.0 0.00 0.00 0.00 68 1018.4
20260904224544 77 314 0.0 0.0 0.00 0.00 0.00 68 1018.4
20260904224105 77 314 0.0 0.0 0.00 0.00 0.00 68 1018.5
20260904223546 77 314 0.0 0.0 0.00 0.00 0.00 68 1018.3
20260904223035 77 314 0.0 0.0 0.00 0.00 0.00 68 1018.3
20260904222535 77 314 0.0 0.0 0.00 0.00 0.00 68 1018.3
20260904222036 76 314 0.0 0.0 0.00 0.00 0.00 69 1018.4
20260904221538 76 314 0.0 0.0 0.00 0.00 0.00 70 1018.4
20260904221059 76 314 0.0 0.0 0.00 0.00 0.00 70 1018.4
20260904220542 76 314 0.0 0.0 0.00 0.00 0.00 71 1018.5
20260904220100 76 314 0.0 0.0 0.00 0.00 0.00 70 1018.5
20260904215550 77 314 0.0 0.0 0.00 0.00 0.00 69 1018.4
20260904215044 77 313 0.0 0.0 0.00 0.00 0.00 69 1018.6
20260904214546 77 313 0.0 0.0 0.00 0.00 0.00 69 1018.5
20260904214102 77 314 0.0 0.0 0.00 0.00 0.00 70 1018.5
20260904213544 77 314 0.0 0.0 0.00 0.00 0.00 70 1018.5
20260904213055 77 314 0.0 0.0 0.00 0.00 0.00 70 1018.6
20260904212532 77 314 0.0 0.0 0.00 0.00 0.00 69 1018.5
20260904212044 77 314 0.0 1.0 0.00 0.00 0.00 70 1018.6
20260904211548 77 314 0.0 3.0 0.00 0.00 0.00 70 1018.6
20260904211036 77 314 1.0 3.0 0.00 0.00 0.00 70 1018.7
20260904210535 77 318 0.0 0.0 0.00 0.00 0.00 70 1018.8
20260904210039 77 318 0.0 0.0 0.00 0.00 0.00 70 1018.7
20260904205543 77 318 0.0 0.0 0.00 0.00 0.00 69 1018.7
20260904205035 77 318 0.0 0.0 0.00 0.00 0.00 69 1018.8
20260904204538 77 318 0.0 0.0 0.00 0.00 0.00 69 1018.8
20260904204050 78 318 0.0 0.0 0.00 0.00 0.00 68 1018.9
20260904203550 78 318 0.0 0.0 0.00 0.00 0.00 68 1018.9
20260904203047 78 318 0.0 0.0 0.00 0.00 0.00 67 1018.9
20260904202544 78 318 0.0 0.0 0.00 0.00 0.00 68 1018.8
20260904202056 78 318 0.0 0.0 0.00 0.00 0.00 68 1018.8
20260904201533 78 320 0.0 0.0 0.00 0.00 0.00 68 1018.8
20260904201046 78 320 0.0 0.0 0.00 0.00 0.00 68 1018.9
20260904200550 78 320 0.0 0.0 0.00 0.00 0.00 68 1018.8
20260904200038 78 320 0.0 0.0 0.00 0.00 0.00 67 1018.8
20260904195542 79 320 0.0 0.0 0.00 0.00 0.00 67 1018.8
20260904195101 78 320 0.0 0.0 0.00 0.00 0.00 68 1018.8
20260904194542 78 320 0.0 0.0 0.00 0.00 0.00 68 1018.7
20260904194046 79 320 0.0 0.0 0.00 0.00 0.00 68 1018.7
20260904193609 79 320 0.0 0.0 0.00 0.00 0.00 68 1018.8
20260904193048 79 320 0.0 0.0 0.00 0.00 0.00 67 1018.8
20260904192611 79 320 0.0 0.0 0.00 0.00 0.00 67 1018.7
20260904192038 79 320 0.0 0.0 0.00 0.00 0.00 67 1018.7
20260904191540 79 320 0.0 0.0 0.00 0.00 0.00 67 1018.7
20260904191048 80 320 0.0 0.0 0.00 0.00 0.00 66 1018.5
20260904190545 80 320 0.0 0.0 0.00 0.00 0.00 66 1018.6
20260904190057 80 320 0.0 0.0 0.00 0.00 0.00 66 1018.5
20260904185534 80 320 0.0 0.0 0.00 0.00 0.00 65 1018.4
20260904185041 80 320 0.0 0.0 0.00 0.00 0.00 64 1018.3
20260904184602 81 320 0.0 0.0 0.00 0.00 0.00 64 1018.3
20260904184101 81 320 0.0 0.0 0.00 0.00 0.00 64 1018.2
20260904183536 81 320 0.0 0.0 0.00 0.00 0.00 64 1018.1
20260904183045 81 320 0.0 0.0 0.00 0.00 0.00 64 1018.1
20260904182547 82 320 0.0 0.0 0.00 0.00 0.00 64 1018.1
20260904182102 82 320 0.0 0.0 0.00 0.00 0.00 63 1018.0
20260904181602 82 320 0.0 0.0 0.00 0.00 0.00 62 1018.0
20260904181033 83 320 0.0 0.0 0.00 0.00 0.00 61 1017.9
20260904180556 83 320 0.0 0.0 0.00 0.00 0.00 61 1017.9
20260904180047 83 320 0.0 0.0 0.00 0.00 0.00 60 1017.9
20260904175549 83 320 0.0 0.0 0.00 0.00 0.00 60 1017.9
20260904175036 83 319 0.0 0.0 0.00 0.00 0.00 60 1017.9
20260904174538 84 319 0.0 0.0 0.00 0.00 0.00 61 1017.9
20260904174038 84 319 0.0 0.0 0.00 0.00 0.00 60 1017.9
20260904173542 84 319 0.0 0.0 0.00 0.00 0.00 59 1017.8
20260904173102 84 319 0.0 0.0 0.00 0.00 0.00 58 1017.8
20260904172542 85 319 0.0 0.0 0.00 0.00 0.00 57 1017.9
20260904172053 85 334 0.0 0.0 0.00 0.00 0.00 56 1017.9
20260904171536 85 335 0.0 0.0 0.00 0.00 0.00 54 1017.9
20260904171045 86 335 0.0 0.0 0.00 0.00 0.00 54 1018.0
20260904170547 86 335 0.0 0.0 0.00 0.00 0.00 52 1018.0
20260904170105 87 335 0.0 0.0 0.00 0.00 0.00 52 1017.9
20260904165543 87 335 0.0 0.0 0.00 0.00 0.00 52 1018.0
20260904165101 88 335 0.0 0.0 0.00 0.00 0.00 51 1018.0
20260904164543 88 334 0.0 0.0 0.00 0.00 0.00 50 1018.0
20260904164055 89 334 0.0 1.0 0.00 0.00 0.00 50 1018.0
20260904163537 90 335 0.0 1.0 0.00 0.00 0.00 49 1018.0
20260904163042 91 141 0.0 0.0 0.00 0.00 0.00 47 1018.0
20260904162544 92 141 0.0 0.0 0.00 0.00 0.00 47 1018.0
20260904162034 91 141 0.0 0.0 0.00 0.00 0.00 46 1018.1
20260904161535 91 141 0.0 0.0 0.00 0.00 0.00 45 1018.1
20260904161046 91 141 0.0 0.0 0.00 0.00 0.00 45 1018.1
20260904160550 91 141 0.0 0.0 0.00 0.00 0.00 45 1018.1
20260904160040 91 141 0.0 0.0 0.00 0.00 0.00 45 1018.1
20260904155542 91 141 0.0 0.0 0.00 0.00 0.00 45 1018.2
20260904155100 90 141 0.0 0.0 0.00 0.00 0.00 46 1018.2
20260904154534 90 141 0.0 0.0 0.00 0.00 0.00 46 1018.2
20260904154042 89 141 0.0 2.0 0.00 0.00 0.00 48 1018.3
20260904153606 89 141 0.0 4.0 0.00 0.00 0.00 47 1018.4
20260904153058 90 141 1.0 4.0 0.00 0.00 0.00 47 1018.4